Content
SEND FEEDBACK

Daily
Averages
Monthly
Summary
United States of America

CAYOTE, TEXAS


Home > North America > United States > Texas
Elevation: 710 feet     Latitude: 31 48N     Longitude: 097 26W

WEATHER
 
SELECT A DAY
Number of Records: 200,180;   Date Range: 1/1/95 - 7/7/14
 
SHARE

PRINT THIS DATA

[ ← Previous Day ]
WEATHER ALMANAC - JANUARY 30, 2013
[ Next Day → ]
[ °C ]   °F
Weather ElementAverageHighLow
Temperature46.6 °F55.9 °F (2:51 pm)30.9 °F (10:51 pm)
Dewpoint23 °F32 °F (6:51 am)12.9 °F (5:51 pm)
Humidity42.4 %76 % (10:51 pm)20 % (4:51 pm)
Barometer30.03 in30.19 in (11:51 pm)29.77 in (1:51 am)
Wind Speed13.2 mph24.2 mph (8:51 am)
Wind Gust32.2 mph (9:51 am)
Weather ElementAverage
Visibility10 mi
Wind DirectionWNW (277 °)

Weather ElementTotal
Precipitation---
Heating Degree Days21.6 (Base 65)
Averaged from 23 records on January 30, 2013
WEATHER CONDITIONS BREAKOUT
WIND DIRECTION BREAKOUT
WEATHER BY HOUR - JANUARY 30, 2013
[ °C ]   °F
Local TimeTemperatureDewpointHumidityBarometerVisibilityWind DirectionWind SpeedGust SpeedPrecipitationEventsConditions
1:51 AM46.0 °F27.0 °F47 %29.77 in10.0 miWSW (240°)4.6 mphPartly Cloudy
2:51 AM45.0 °F27.0 °F49 %29.78 in9.0 miWest (260°)8.1 mphClear
3:51 AM48.0 °F24.1 °F39 %29.79 in10.0 miWest (270°)10.4 mphClear
4:51 AM44.1 °F21.9 °F42 %29.83 in10.0 miWest (280°)6.9 mphClear
5:51 AM45.0 °F27.0 °F49 %29.88 in10.0 miWNW (300°)15.0 mph20.7 mphClear
6:51 AM45.0 °F32.0 °F60 %29.93 in10.0 miNW (310°)13.8 mphMostly Cloudy
7:51 AM45.0 °F30.9 °F58 %29.96 in10.0 miNW (310°)17.3 mph23.0 mphOvercast
8:51 AM46.9 °F28.9 °F50 %30.01 in10.0 miNW (310°)24.2 mph31.1 mphClear
9:51 AM48.0 °F28.0 °F46 %30.06 in10.0 miNW (310°)19.6 mph32.2 mphClear
10:51 AM51.1 °F27.0 °F39 %30.09 in10.0 miWNW (300°)21.9 mph32.2 mphClear
11:51 AM52.0 °F27.0 °F38 %30.09 in10.0 miNNW (330°)19.6 mph27.6 mphClear
12:51 PM54.0 °F25.0 °F33 %30.08 in10.0 miNW (320°)20.7 mph29.9 mphClear
1:51 PM55.0 °F21.0 °F27 %30.06 in10.0 miNW (310°)23.0 mph32.2 mphClear
2:51 PM55.9 °F19.9 °F25 %30.07 in10.0 miWNW (300°)18.4 mph28.8 mphClear
3:51 PM55.4 °F15.8 °F21 %30.10 in10.0 miWNW (300°)18.4 mph25.3 mphClear
4:51 PM55.0 °F14.0 °F20 %30.11 in10.0 miNW (310°)17.3 mph23.0 mphClear
5:51 PM52.0 °F12.9 °F21 %30.13 in10.0 miNW (320°)11.5 mphClear
6:51 PM46.9 °F16.0 °F29 %30.14 in10.0 miNW (320°)8.1 mphClear
7:51 PM43.0 °F17.1 °F35 %30.17 in10.0 miWest (280°)4.6 mphClear
8:51 PM42.1 °F17.1 °F37 %30.17 in10.0 miWest (280°)4.6 mphClear
9:51 PM33.1 °F23.0 °F66 %30.17 in10.0 miCalmClear
10:51 PM30.9 °F24.1 °F76 %30.17 in10.0 miSSW (200°)8.1 mphClear
11:51 PM32.0 °F23.0 °F69 %30.19 in10.0 miSSW (210°)6.9 mphClear
Hourly data recorded from KACT, located miles away from Cayote, Texas







STORIES FROM OUR PARTNERS